Погода в Улувату

Индонезия     8°49′40″S   115°05′10″E
темп.,
°C
ветер,
м/с
пор.,
м/с
влажн.,
%
обл.,
%
осадки,
мм/ч
давл.,
гПа
погр.,
м
2 марта, вт
вт223:00+28ссв337749 0.0 1011172
02:00+27с227428 0.5 1010173
05:00+27с227437 0.0 1008221
08:00+27с227336 0.0 1010257
11:00+28з11690 0.0 1010210
14:00+28ююв337035 0.0 1009262
17:00+28ююв227076 0.5 1008214
20:00+28зюз457843 1.8 1010209
3 марта, ср
ср323:00+28сз337834 0.1 1011224
02:00+27с227633 0.1 1010294
05:00+27ссв227539 0.0 1009177
08:00+27ссв117356 0.0 1010130
11:00+28з127118 0.0 1011206
14:00+29юз33709 0.0 1008381
17:00+29юз34720 0.0 1008563
20:00+28з127717 2.8 1010142
4 марта, чт
чт423:00+28ссз237888 0.7 1012201
02:00+27с227890 0.7 1010231
05:00+27ссз3372100 0.0 1010270
08:00+27ссз227396 0.0 1011285
11:00+28зсз3475100 0.0 1011343
14:00+28юз5573100 0.0 1009556
17:00+29зюз6873100 0.1 1008756
20:00+28зюз7776100 1.6 1010701
5 марта, пт
пт523:00+28з6677100 4.7 1011540
02:00+28зсз6777100 6.8 1010848
05:00+27зюз7878100 1.9 1009904
08:00+27зюз5677100 7.3 1011612
11:00+27з347694 3.3 1011412
14:00+28зюз567496 4.8 1009807
17:00+28юз567689 1.3 1008873
20:00+27юз447891 3.8 1010608
6 марта, сб
сб623:00+27зсз2376100 0.1 1011631
02:00+27с2281100 0.1 1009342
05:00+26с1182100 0.0 1008216
08:00+26ссв2180100 0.0 1011199
11:00+27сз2277100 0.0 1010247
14:00+28ююз337297 0.0 1008376
17:00+28ююз22701 0.0 1008796
20:00+28ююз227522 0.0 1010588